Location: Ch�tillon
(48.8024°N, 2.2935°E)
Time: 22:24:07
(UTC+00:00)

CAS-4A - Pass Details

Date: 05 July 2022
Orbit: 522 x 537 km, 43.0° (Epoch: 07 August)

Event Time Altitude Azimuth Distance (km) Brightness Sun altitude
Exits shadow 01:12:41 28° 161° (SSE) 1,002 ? -16.3°
Drops below altitude 10° 01:16:00 10° 106° (ESE) 1,758 ? -16.2°
Sets 01:18:26 0° 94° (E) 2,650 ? -16.0°
